NR76G KIFP-KPRC

Flight info

Callsign NR76G
Flight time 1h 22m
Altitude 7500
Route VOR EED
Aircraft B36T/L-SG/C

Departure

Time 2026-05-09 05:23
Airport Laughlin Bullhead International Airport (KIFP)

Arrival

Time 2026-05-09 06:45
Airport Prescott Regional Airport - Ernest A. Love Field (KPRC)
Time Latitude Longitude Altitude Speed Heading
2026-05-09 04:57 35.15617 -114.55614 659 ft 0 kts 264°
2026-05-09 05:19 35.15615 -114.55629 695 ft 3 kts 252°
2026-05-09 05:19 35.15605 -114.55659 659 ft 11 kts 254°
2026-05-09 05:19 35.15598 -114.55744 660 ft 8 kts 263°
2026-05-09 05:19 35.15589 -114.55796 660 ft 3 kts 229°
2026-05-09 05:20 35.15522 -114.55809 663 ft 16 kts 179°
2026-05-09 05:20 35.15373 -114.55795 668 ft 20 kts 171°
2026-05-09 05:20 35.15256 -114.55785 672 ft 19 kts 180°
2026-05-09 05:20 35.15144 -114.55786 676 ft 6 kts 221°
2026-05-09 05:21 35.15131 -114.55813 677 ft 0 kts 265°
2026-05-09 05:21 35.15129 -114.55854 677 ft 12 kts 264°
2026-05-09 05:21 35.15176 -114.55914 675 ft 0 kts 354°
2026-05-09 05:22 35.15307 -114.55927 670 ft 59 kts 358°
2026-05-09 05:22 35.15996 -114.55978 635 ft 129 kts 359°
2026-05-09 05:23 35.16972 -114.56049 904 ft 149 kts
2026-05-09 05:23 35.17967 -114.56143 1490 ft 135 kts 355°
2026-05-09 05:23 35.18920 -114.56246 1932 ft 140 kts 354°
2026-05-09 05:23 35.19857 -114.56311 2616 ft 134 kts
2026-05-09 05:24 35.20729 -114.56345 3254 ft 120 kts 358°
2026-05-09 05:24 35.21606 -114.56422 3668 ft 133 kts 358°
2026-05-09 05:24 35.22559 -114.56470 4004 ft 143 kts 349°
2026-05-09 05:24 35.23328 -114.57100 4416 ft 132 kts 291°
2026-05-09 05:25 35.23512 -114.58114 4790 ft 119 kts 246°
2026-05-09 05:25 35.23064 -114.58914 5032 ft 117 kts 208°
2026-05-09 05:25 35.21475 -114.59264 5725 ft 121 kts 183°
2026-05-09 05:26 35.20638 -114.59283 6017 ft 120 kts 181°
2026-05-09 05:26 35.19796 -114.59291 6259 ft 121 kts 181°
2026-05-09 05:26 35.18947 -114.59303 6489 ft 123 kts 181°
2026-05-09 05:26 35.18129 -114.59293 6815 ft 115 kts 179°
2026-05-09 05:27 35.17286 -114.59190 6912 ft 129 kts 165°
2026-05-09 05:27 35.16434 -114.58753 7088 ft 129 kts 158°
2026-05-09 05:27 35.15624 -114.58292 7381 ft 128 kts 161°
2026-05-09 05:27 35.14844 -114.57878 7514 ft 122 kts 161°
2026-05-09 05:28 35.14021 -114.57542 7487 ft 126 kts 168°
2026-05-09 05:28 35.13182 -114.57221 7534 ft 124 kts 167°
2026-05-09 05:28 35.12378 -114.57004 7630 ft 120 kts 174°
2026-05-09 05:28 35.11496 -114.56844 7494 ft 136 kts 177°
2026-05-09 05:29 35.10559 -114.56647 7523 ft 135 kts 174°
2026-05-09 05:29 35.09623 -114.56470 7563 ft 134 kts 176°
2026-05-09 05:29 35.08681 -114.56338 7315 ft 138 kts 179°
2026-05-09 05:29 35.07712 -114.56261 7282 ft 143 kts 182°
2026-05-09 05:30 35.06727 -114.56186 7292 ft 140 kts 182°
2026-05-09 05:30 35.05757 -114.56130 7298 ft 139 kts 184°
2026-05-09 05:30 35.04800 -114.56123 7301 ft 137 kts 184°
2026-05-09 05:30 35.03836 -114.56085 7265 ft 139 kts 181°
2026-05-09 05:31 35.02870 -114.56041 7231 ft 139 kts 184°
2026-05-09 05:31 35.01907 -114.56004 7201 ft 141 kts 178°
2026-05-09 05:31 35.00932 -114.55839 7202 ft 140 kts 175°
2026-05-09 05:31 34.99955 -114.55642 7118 ft 145 kts 176°
2026-05-09 05:32 34.98986 -114.55529 7171 ft 136 kts 182°
2026-05-09 05:32 34.98019 -114.55452 7094 ft 141 kts 180°
2026-05-09 05:32 34.97059 -114.55370 7160 ft 134 kts 184°
2026-05-09 05:32 34.96131 -114.55389 7097 ft 137 kts 189°
2026-05-09 05:33 34.95176 -114.55614 7003 ft 139 kts 196°
2026-05-09 05:33 34.94235 -114.55603 7081 ft 138 kts 173°
2026-05-09 05:33 34.93289 -114.55281 7062 ft 140 kts 166°
2026-05-09 05:33 34.92400 -114.54849 7111 ft 139 kts 161°
2026-05-09 05:34 34.91494 -114.54396 7074 ft 140 kts 169°
2026-05-09 05:34 34.90861 -114.54270 7121 ft 133 kts 184°
2026-05-09 05:34 34.89958 -114.54435 7044 ft 137 kts 202°
2026-05-09 05:34 34.89103 -114.54871 7116 ft 128 kts 207°
2026-05-09 05:35 34.88311 -114.55337 7121 ft 126 kts 212°
2026-05-09 05:35 34.87531 -114.55853 7088 ft 129 kts 212°
2026-05-09 05:35 34.86755 -114.56356 7161 ft 123 kts 210°
2026-05-09 05:35 34.85967 -114.56847 7107 ft 130 kts 210°
2026-05-09 05:36 34.85165 -114.57366 7144 ft 127 kts 213°
2026-05-09 05:36 34.84407 -114.57873 7182 ft 125 kts 212°
2026-05-09 05:36 34.83588 -114.58330 7123 ft 133 kts 202°
2026-05-09 05:36 34.82708 -114.58442 7283 ft 126 kts 183°
2026-05-09 05:37 34.81789 -114.58239 7164 ft 142 kts 171°
2026-05-09 05:37 34.80867 -114.57849 7225 ft 138 kts 164°
2026-05-09 05:37 34.79950 -114.57437 7181 ft 143 kts 167°
2026-05-09 05:37 34.79052 -114.57040 7297 ft 134 kts 167°
2026-05-09 05:38 34.78143 -114.56615 7182 ft 145 kts 166°
2026-05-09 05:38 34.77248 -114.56164 7310 ft 135 kts 162°
2026-05-09 05:38 34.76363 -114.55680 7239 ft 143 kts 159°
2026-05-09 05:38 34.75494 -114.55142 7309 ft 139 kts 155°
2026-05-09 05:39 34.74705 -114.54435 7318 ft 144 kts 145°
2026-05-09 05:39 34.73962 -114.53565 7281 ft 149 kts 143°
2026-05-09 05:39 34.73236 -114.52719 7319 ft 145 kts 144°
2026-05-09 05:39 34.72474 -114.51863 7312 ft 145 kts 144°
2026-05-09 05:40 34.71733 -114.51035 7312 ft 148 kts 143°
2026-05-09 05:40 34.71009 -114.50151 7348 ft 147 kts 135°
2026-05-09 05:40 34.70546 -114.49039 7476 ft 149 kts 107°
2026-05-09 05:40 34.70538 -114.47786 7459 ft 153 kts 80°
2026-05-09 05:41 34.70799 -114.46514 7417 ft 158 kts 72°
2026-05-09 05:41 34.71184 -114.45264 7429 ft 159 kts 68°
2026-05-09 05:41 34.71581 -114.44026 7484 ft 156 kts 69°
2026-05-09 05:41 34.71940 -114.42808 7533 ft 152 kts 71°
2026-05-09 05:42 34.72293 -114.41526 7409 ft 161 kts 71°
2026-05-09 05:42 34.72673 -114.40214 7339 ft 163 kts 71°
2026-05-09 05:42 34.73027 -114.38921 7344 ft 162 kts 71°
2026-05-09 05:42 34.73354 -114.37634 7366 ft 158 kts 76°
2026-05-09 05:43 34.73601 -114.36316 7323 ft 160 kts 80°
2026-05-09 05:43 34.73765 -114.34979 7331 ft 159 kts 84°
2026-05-09 05:43 34.73914 -114.33656 7338 ft 158 kts 81°
2026-05-09 05:43 34.74124 -114.32363 7380 ft 155 kts 78°
2026-05-09 05:44 34.74324 -114.31055 7312 ft 161 kts 83°
2026-05-09 05:44 34.74437 -114.29694 7234 ft 162 kts 90°
2026-05-09 05:44 34.74512 -114.28367 7329 ft 153 kts 88°
2026-05-09 05:44 34.74604 -114.27046 7274 ft 155 kts 86°
2026-05-09 05:45 34.74684 -114.25754 7267 ft 157 kts 88°
2026-05-09 05:45 34.74744 -114.24427 7227 ft 157 kts 91°
2026-05-09 05:45 34.74737 -114.23085 7196 ft 158 kts 94°
2026-05-09 05:45 34.74728 -114.21785 7250 ft 154 kts 92°
2026-05-09 05:46 34.74746 -114.20473 7212 ft 154 kts 90°
2026-05-09 05:46 34.74781 -114.19186 7174 ft 156 kts 90°
2026-05-09 05:46 34.74815 -114.17878 7171 ft 155 kts 92°
2026-05-09 05:46 34.74805 -114.16502 7052 ft 162 kts 93°
2026-05-09 05:47 34.74726 -114.15184 7155 ft 153 kts 98°
2026-05-09 05:47 34.74672 -114.13878 7161 ft 152 kts 94°
2026-05-09 05:47 34.74595 -114.12569 7099 ft 158 kts 98°
2026-05-09 05:47 34.74478 -114.11246 7111 ft 155 kts 98°
2026-05-09 05:48 34.74356 -114.09946 7119 ft 156 kts 98°
2026-05-09 05:48 34.74246 -114.08609 7126 ft 157 kts 96°
2026-05-09 05:48 34.74170 -114.07318 7180 ft 156 kts 95°
2026-05-09 05:48 34.74057 -114.05982 7217 ft 153 kts 98°
2026-05-09 05:49 34.73918 -114.04713 7273 ft 153 kts 98°
2026-05-09 05:49 34.73805 -114.03450 7375 ft 148 kts 96°
2026-05-09 05:49 34.73700 -114.02171 7345 ft 156 kts 97°
2026-05-09 05:49 34.73574 -114.00859 7369 ft 158 kts 98°
2026-05-09 05:50 34.73458 -113.99576 7491 ft 154 kts 95°
2026-05-09 05:50 34.73394 -113.98269 7542 ft 151 kts 91°
2026-05-09 05:50 34.73401 -113.97001 7506 ft 156 kts 88°
2026-05-09 05:50 34.73399 -113.95670 7481 ft 157 kts 92°
2026-05-09 05:51 34.73328 -113.94325 7471 ft 159 kts 95°
2026-05-09 05:51 34.73230 -113.93019 7521 ft 152 kts 95°
2026-05-09 05:51 34.73127 -113.91738 7455 ft 156 kts 96°
2026-05-09 05:51 34.73027 -113.90433 7425 ft 154 kts 96°
2026-05-09 05:52 34.72886 -113.89155 7383 ft 154 kts 100°
2026-05-09 05:52 34.72713 -113.87881 7363 ft 150 kts 101°
2026-05-09 05:52 34.72556 -113.86588 7257 ft 159 kts 99°
2026-05-09 05:52 34.72401 -113.85299 7432 ft 144 kts 98°
2026-05-09 05:53 34.72297 -113.84081 7458 ft 150 kts 96°
2026-05-09 05:53 34.72192 -113.82813 7561 ft 143 kts 98°
2026-05-09 05:53 34.72057 -113.81575 7348 ft 163 kts 96°
2026-05-09 05:53 34.71969 -113.80214 7339 ft 154 kts 95°
2026-05-09 05:54 34.71906 -113.78925 7271 ft 154 kts 93°
2026-05-09 05:54 34.71851 -113.77584 7096 ft 156 kts 93°
2026-05-09 05:54 34.71760 -113.76296 7176 ft 151 kts 97°
2026-05-09 05:54 34.71655 -113.75046 7248 ft 146 kts 96°
2026-05-09 05:55 34.71550 -113.73762 7111 ft 163 kts 95°
2026-05-09 05:55 34.71481 -113.72409 7244 ft 152 kts 91°
2026-05-09 05:55 34.71456 -113.71058 7101 ft 166 kts 89°
2026-05-09 05:55 34.71494 -113.69764 7330 ft 142 kts 79°
2026-05-09 05:56 34.71636 -113.68543 7250 ft 150 kts 77°
2026-05-09 05:56 34.71850 -113.67286 7221 ft 153 kts 75°
2026-05-09 05:56 34.72131 -113.66061 7256 ft 149 kts 54°
2026-05-09 05:56 34.72679 -113.65017 7265 ft 148 kts 59°
2026-05-09 05:57 34.72818 -113.63777 7274 ft 151 kts 92°
2026-05-09 05:57 34.72755 -113.62503 7267 ft 151 kts 94°
2026-05-09 05:57 34.72694 -113.61225 7279 ft 151 kts 94°
2026-05-09 05:57 34.72632 -113.59944 7278 ft 153 kts 93°
2026-05-09 05:58 34.72564 -113.58633 7287 ft 156 kts 93°
2026-05-09 05:58 34.72499 -113.57309 7294 ft 158 kts 92°
2026-05-09 05:58 34.72434 -113.55973 7295 ft 158 kts 93°
2026-05-09 05:58 34.72371 -113.54632 7285 ft 159 kts 94°
2026-05-09 05:59 34.72299 -113.53294 7290 ft 160 kts 93°
2026-05-09 05:59 34.72235 -113.51940 7293 ft 161 kts 93°
2026-05-09 05:59 34.72166 -113.50587 7292 ft 160 kts 92°
2026-05-09 05:59 34.72101 -113.49234 7301 ft 161 kts 93°
2026-05-09 06:00 34.72030 -113.47870 7300 ft 161 kts 92°
2026-05-09 06:00 34.71965 -113.46506 7297 ft 163 kts 92°
2026-05-09 06:00 34.71895 -113.45138 7299 ft 163 kts 93°
2026-05-09 06:00 34.71824 -113.43753 7307 ft 164 kts 93°
2026-05-09 06:01 34.71754 -113.42362 7303 ft 167 kts 95°
2026-05-09 06:01 34.71682 -113.41016 7285 ft 151 kts 94°
2026-05-09 06:01 34.71630 -113.39738 7274 ft 153 kts 93°
2026-05-09 06:01 34.71561 -113.38459 7291 ft 154 kts 92°
2026-05-09 06:02 34.71489 -113.37137 7285 ft 160 kts 92°
2026-05-09 06:02 34.71421 -113.35792 7309 ft 160 kts 92°
2026-05-09 06:02 34.71354 -113.34422 7304 ft 157 kts 94°
2026-05-09 06:02 34.71281 -113.33114 7305 ft 154 kts 93°
2026-05-09 06:03 34.71219 -113.31808 7308 ft 156 kts 93°
2026-05-09 06:03 34.71150 -113.30484 7306 ft 159 kts 92°
2026-05-09 06:03 34.71080 -113.29128 7310 ft 162 kts 94°
2026-05-09 06:03 34.71006 -113.27747 7306 ft 163 kts 93°
2026-05-09 06:04 34.70947 -113.26410 7237 ft 143 kts 84°
2026-05-09 06:04 34.70954 -113.25293 7278 ft 134 kts 101°
2026-05-09 06:04 34.70799 -113.24129 7293 ft 146 kts 94°
2026-05-09 06:04 34.70738 -113.22866 7301 ft 153 kts 92°
2026-05-09 06:05 34.70674 -113.21560 7311 ft 156 kts 93°
2026-05-09 06:05 34.70622 -113.20225 7309 ft 161 kts 93°
2026-05-09 06:05 34.70542 -113.18867 7311 ft 161 kts 92°
2026-05-09 06:05 34.70471 -113.17498 7308 ft 162 kts 92°
2026-05-09 06:06 34.70398 -113.16121 7309 ft 166 kts 94°
2026-05-09 06:06 34.70328 -113.14713 7309 ft 167 kts 94°
2026-05-09 06:06 34.70254 -113.13319 7309 ft 164 kts 94°
2026-05-09 06:06 34.70207 -113.12394 7300 ft 166 kts 94°
2026-05-09 06:07 34.70131 -113.10996 7297 ft 165 kts 94°
2026-05-09 06:07 34.70061 -113.09611 7312 ft 164 kts 94°
2026-05-09 06:07 34.69984 -113.08214 7310 ft 167 kts 94°
2026-05-09 06:07 34.69905 -113.06802 7314 ft 167 kts 93°
2026-05-09 06:08 34.69831 -113.05400 7313 ft 164 kts 91°
2026-05-09 06:08 34.69661 -113.04055 7312 ft 160 kts 113°
2026-05-09 06:08 34.69472 -113.02727 7302 ft 159 kts 83°
2026-05-09 06:08 34.69498 -113.01374 7304 ft 162 kts 88°
2026-05-09 06:09 34.69524 -112.99985 7302 ft 168 kts 86°
2026-05-09 06:09 34.69729 -112.98598 7301 ft 165 kts 66°
2026-05-09 06:09 34.70100 -112.97301 7312 ft 160 kts 68°
2026-05-09 06:09 34.70473 -112.96028 7314 ft 161 kts 67°
2026-05-09 06:10 34.70854 -112.94740 7314 ft 163 kts 68°
2026-05-09 06:10 34.71233 -112.93431 7307 ft 164 kts 68°
2026-05-09 06:10 34.71620 -112.92133 7314 ft 164 kts 65°
2026-05-09 06:10 34.72020 -112.90824 7320 ft 167 kts 63°
2026-05-09 06:11 34.72606 -112.89622 7314 ft 165 kts 43°
2026-05-09 06:11 34.73354 -112.88578 7316 ft 163 kts 42°
2026-05-09 06:11 34.74093 -112.87536 7319 ft 164 kts 40°
2026-05-09 06:11 34.74836 -112.86468 7316 ft 165 kts 41°
2026-05-09 06:12 34.75592 -112.85426 7315 ft 163 kts 40°
2026-05-09 06:12 34.76337 -112.84371 7307 ft 166 kts 43°
2026-05-09 06:12 34.77060 -112.83320 7307 ft 159 kts 42°
2026-05-09 06:12 34.77788 -112.82312 7315 ft 158 kts 42°
2026-05-09 06:13 34.78508 -112.81333 7318 ft 154 kts 38°
2026-05-09 06:13 34.79198 -112.80335 7314 ft 152 kts 43°
2026-05-09 06:13 34.79887 -112.79370 7316 ft 150 kts 42°
2026-05-09 06:13 34.80571 -112.78402 7312 ft 151 kts 43°
2026-05-09 06:14 34.81251 -112.77434 7320 ft 150 kts 43°
2026-05-09 06:14 34.81936 -112.76469 7322 ft 151 kts 43°
2026-05-09 06:14 34.82625 -112.75515 7315 ft 149 kts 41°
2026-05-09 06:14 34.83309 -112.74571 7313 ft 149 kts 41°
2026-05-09 06:15 34.83990 -112.73630 7316 ft 148 kts 43°
2026-05-09 06:15 34.84680 -112.72695 7309 ft 146 kts 40°
2026-05-09 06:15 34.85345 -112.71788 7314 ft 146 kts 41°
2026-05-09 06:15 34.86016 -112.70849 7310 ft 144 kts 40°
2026-05-09 06:16 34.86686 -112.69931 7304 ft 146 kts 41°
2026-05-09 06:16 34.87355 -112.69014 7307 ft 144 kts 40°
2026-05-09 06:16 34.88004 -112.68096 7311 ft 143 kts 41°
2026-05-09 06:16 34.88654 -112.67176 7308 ft 143 kts 42°
2026-05-09 06:17 34.89318 -112.66273 7312 ft 144 kts 41°
2026-05-09 06:17 34.89978 -112.65357 7314 ft 144 kts 45°
2026-05-09 06:17 34.90648 -112.64441 7312 ft 145 kts 41°
2026-05-09 06:17 34.91317 -112.63530 7313 ft 144 kts 40°
2026-05-09 06:18 34.91974 -112.62607 7314 ft 144 kts 41°
2026-05-09 06:18 34.92616 -112.61666 7318 ft 145 kts 46°
2026-05-09 06:18 34.93280 -112.60739 7322 ft 145 kts 40°
2026-05-09 06:18 34.93955 -112.59807 7322 ft 148 kts 41°
2026-05-09 06:19 34.94626 -112.58846 7320 ft 148 kts 41°
2026-05-09 06:19 34.95303 -112.57910 7323 ft 146 kts 41°
2026-05-09 06:19 34.95972 -112.56978 7316 ft 146 kts 42°
2026-05-09 06:19 34.96632 -112.56043 7314 ft 145 kts 41°
2026-05-09 06:20 34.97283 -112.55111 7322 ft 145 kts 43°
2026-05-09 06:20 34.97951 -112.54185 7318 ft 145 kts 43°
2026-05-09 06:20 34.98605 -112.53260 7327 ft 145 kts 40°
2026-05-09 06:20 34.99264 -112.52330 7325 ft 145 kts 46°
2026-05-09 06:21 34.99552 -112.51123 7308 ft 158 kts 91°
2026-05-09 06:21 34.99492 -112.49771 7321 ft 159 kts 89°
2026-05-09 06:21 34.99411 -112.48468 7341 ft 154 kts 91°
2026-05-09 06:21 34.99313 -112.47154 7334 ft 153 kts 93°
2026-05-09 06:22 34.99231 -112.45865 7333 ft 150 kts 91°
2026-05-09 06:22 34.99158 -112.44597 7356 ft 151 kts 90°
2026-05-09 06:22 34.99071 -112.43316 7349 ft 152 kts 92°
2026-05-09 06:22 34.98993 -112.42025 7351 ft 153 kts 90°
2026-05-09 06:23 34.98905 -112.40719 7354 ft 156 kts 91°
2026-05-09 06:23 34.98805 -112.39391 7354 ft 158 kts 92°
2026-05-09 06:23 34.98701 -112.38051 7346 ft 158 kts 92°
2026-05-09 06:23 34.98609 -112.36729 7348 ft 155 kts 91°
2026-05-09 06:24 34.98524 -112.35422 7346 ft 155 kts 91°
2026-05-09 06:24 34.98820 -112.34227 7332 ft 145 kts 39°
2026-05-09 06:24 34.99661 -112.33834 7326 ft 126 kts 345°
2026-05-09 06:24 35.00275 -112.34475 7333 ft 122 kts 287°
2026-05-09 06:25 35.00270 -112.35527 7336 ft 126 kts 268°
2026-05-09 06:25 35.00192 -112.36584 7340 ft 125 kts 269°
2026-05-09 06:25 35.00090 -112.37639 7338 ft 127 kts 267°
2026-05-09 06:25 34.99985 -112.38718 7342 ft 129 kts 268°
2026-05-09 06:26 34.99895 -112.39819 7340 ft 130 kts 268°
2026-05-09 06:26 34.99794 -112.40901 7353 ft 127 kts 268°
2026-05-09 06:26 34.99681 -112.41963 7351 ft 128 kts 266°
2026-05-09 06:26 34.99579 -112.43048 7356 ft 129 kts 267°
2026-05-09 06:27 34.99500 -112.44145 7350 ft 129 kts 267°
2026-05-09 06:27 34.99432 -112.45228 7351 ft 127 kts 272°
2026-05-09 06:27 34.99352 -112.46296 7326 ft 126 kts 267°
2026-05-09 06:27 34.99287 -112.47354 7322 ft 124 kts 268°
2026-05-09 06:28 34.99212 -112.48389 7333 ft 123 kts 269°
2026-05-09 06:28 34.99117 -112.49441 7334 ft 127 kts 267°
2026-05-09 06:28 34.99017 -112.50492 7341 ft 116 kts 268°
2026-05-09 06:28 34.99069 -112.51459 7303 ft 112 kts 301°
2026-05-09 06:29 34.99731 -112.51706 7305 ft 112 kts 13°
2026-05-09 06:29 35.00193 -112.51020 7316 ft 112 kts 71°
2026-05-09 06:29 35.00241 -112.49979 7281 ft 125 kts 82°
2026-05-09 06:29 35.00304 -112.48891 7328 ft 135 kts 82°
2026-05-09 06:30 35.00389 -112.47720 7328 ft 142 kts 83°
2026-05-09 06:30 35.00473 -112.46503 7326 ft 148 kts 80°
2026-05-09 06:30 35.00561 -112.45235 7350 ft 154 kts 80°
2026-05-09 06:30 35.00646 -112.43921 7339 ft 158 kts 80°
2026-05-09 06:31 35.00704 -112.42612 7337 ft 152 kts 81°
2026-05-09 06:31 35.00770 -112.41321 7348 ft 153 kts 83°
2026-05-09 06:31 35.00839 -112.40013 7342 ft 156 kts 81°
2026-05-09 06:31 35.00906 -112.38689 7344 ft 156 kts 82°
2026-05-09 06:32 35.00760 -112.37389 7326 ft 159 kts 119°
2026-05-09 06:32 34.99994 -112.36436 7322 ft 158 kts 141°
2026-05-09 06:32 34.99159 -112.35566 7327 ft 159 kts 142°
2026-05-09 06:33 34.97445 -112.33806 7336 ft 160 kts 141°
2026-05-09 06:33 34.96597 -112.32946 7329 ft 157 kts 141°
2026-05-09 06:33 34.95756 -112.32085 7337 ft 160 kts 142°
2026-05-09 06:34 34.94062 -112.30355 7338 ft 157 kts 142°
2026-05-09 06:34 34.93239 -112.29491 7336 ft 155 kts 141°
2026-05-09 06:34 34.92417 -112.28645 7326 ft 154 kts 142°
2026-05-09 06:34 34.91600 -112.27809 7321 ft 152 kts 142°
2026-05-09 06:35 34.90793 -112.26998 7316 ft 151 kts 141°
2026-05-09 06:35 34.89968 -112.26186 7323 ft 151 kts 142°
2026-05-09 06:35 34.89035 -112.25654 7314 ft 150 kts 177°
2026-05-09 06:35 34.88012 -112.25434 7319 ft 149 kts 178°
2026-05-09 06:36 34.87010 -112.25136 7317 ft 146 kts 173°
2026-05-09 06:36 34.86035 -112.24820 7319 ft 146 kts 175°
2026-05-09 06:36 34.85056 -112.24475 7323 ft 149 kts 174°
2026-05-09 06:36 34.84056 -112.24132 7328 ft 150 kts 174°
2026-05-09 06:37 34.83058 -112.23921 7314 ft 139 kts 197°
2026-05-09 06:37 34.82184 -112.24271 7312 ft 129 kts 218°
2026-05-09 06:37 34.81481 -112.24916 7428 ft 126 kts 226°
2026-05-09 06:37 34.80801 -112.25601 7431 ft 126 kts 228°
2026-05-09 06:38 34.80136 -112.26302 7434 ft 126 kts 229°
2026-05-09 06:38 34.79471 -112.27013 7447 ft 130 kts 227°
2026-05-09 06:38 34.78781 -112.27740 7454 ft 132 kts 229°
2026-05-09 06:38 34.78098 -112.28475 7460 ft 130 kts 228°
2026-05-09 06:39 34.77425 -112.29183 7473 ft 128 kts 227°
2026-05-09 06:39 34.76975 -112.29663 7470 ft 131 kts 229°
2026-05-09 06:39 34.76282 -112.30408 7430 ft 137 kts 228°
2026-05-09 06:39 34.75551 -112.31194 7285 ft 141 kts 227°
2026-05-09 06:40 34.74826 -112.31966 7120 ft 135 kts 230°
2026-05-09 06:40 34.74134 -112.32701 6959 ft 129 kts 229°
2026-05-09 06:40 34.73498 -112.33373 6818 ft 115 kts 230°
2026-05-09 06:40 34.72927 -112.33973 6680 ft 96 kts 232°
2026-05-09 06:41 34.72465 -112.34458 6560 ft 79 kts 232°
2026-05-09 06:41 34.72047 -112.34903 6473 ft 84 kts 230°
2026-05-09 06:41 34.71609 -112.35378 6383 ft 82 kts 229°
2026-05-09 06:41 34.71177 -112.35836 6318 ft 86 kts 230°
2026-05-09 06:42 34.70707 -112.36348 6231 ft 93 kts 231°
2026-05-09 06:42 34.70224 -112.36869 6132 ft 90 kts 227°
2026-05-09 06:42 34.69786 -112.37331 6026 ft 81 kts 225°
2026-05-09 06:42 34.69374 -112.37765 5902 ft 75 kts 226°
2026-05-09 06:43 34.68970 -112.38189 5805 ft 79 kts 227°
2026-05-09 06:43 34.68540 -112.38645 5702 ft 84 kts 225°
2026-05-09 06:43 34.68088 -112.39138 5579 ft 90 kts 226°
2026-05-09 06:43 34.67614 -112.39648 5418 ft 93 kts 229°
2026-05-09 06:44 34.67137 -112.40153 5239 ft 87 kts 229°
2026-05-09 06:44 34.66691 -112.40606 5127 ft 84 kts 228°
2026-05-09 06:44 34.66254 -112.41083 5040 ft 85 kts 226°
2026-05-09 06:44 34.65814 -112.41554 4986 ft 79 kts 225°
2026-05-09 06:45 34.65446 -112.41933 4979 ft 59 kts 229°
2026-05-09 06:45 34.65191 -112.42227 4987 ft 45 kts 220°
2026-05-09 06:45 34.64996 -112.42424 4989 ft 17 kts 220°
2026-05-09 06:45 34.64987 -112.42459 4989 ft 1 kts 285°
2026-05-09 06:46 34.64994 -112.42476 4989 ft 0 kts 308°
2026-05-09 06:46 34.64998 -112.42482 4989 ft 6 kts 308°
2026-05-09 06:46 34.65058 -112.42559 4986 ft 17 kts 314°
2026-05-09 06:46 34.65091 -112.42594 4984 ft 0 kts 314°
2026-05-09 06:47 34.65131 -112.42641 4980 ft 13 kts 317°
2026-05-09 06:47 34.65215 -112.42741 4974 ft 27 kts 322°
2026-05-09 06:47 34.65320 -112.42724 4976 ft 18 kts 52°
2026-05-09 06:47 34.65345 -112.42694 4980 ft 0 kts 42°